Location: Unspecified
(0.0000°N, 0.0000°E)
Time: 22:46:35
(UTC+00:00)

Hubble Space Telescope - Pass Details

Date: 27 November 2022
Orbit: 530 x 534 km, 28.5° (Epoch: 01 December)

Event Time Altitude Azimuth Distance (km) Brightness Sun altitude
Rises 19:08:01 0° 289° (WNW) 2,657 5.1 -18.7°
Reaches altitude 10° 19:10:20 10° 283° (WNW) 1,769 4.2 -19.2°
Maximum altitude 19:14:15 44° 210° (SSW) 741 1.8 -20.1°
Enters shadow 19:16:57 18° 145° (SE) 1,333 2.6 -20.7°
